Location: Clanezzo
(45.7500°N, 9.6000°E)
Time: 04:26:21
(UTC+00:00)

Lacrosse 5 - Pass Details

Date: 12 May 2021
Orbit: 715 x 724 km, 57.0° (Epoch: 15 June)

Event Time Altitude Azimuth Distance (km) Brightness Sun altitude
Exits shadow 23:03:08 17° 89° (E) 1,753 3.8 -25.8°
Drops below altitude 10° 23:04:51 10° 73° (ENE) 2,202 4.5 -25.8°
Sets 23:07:39 0° 59° (ENE) 3,128 5.5 -25.8°
